星链-5577 (STARLINK-5577 )

导读 | 星芒AI

STARLINK-5577 是 SpaceX 星链计划中的一颗低轨通信卫星,属于第 13 批部署的星链卫星群。该卫星于 2022 年发射,运行在约 550 公里的近地轨道,旨在为全球用户提供高速互联网服务。作为星链网络的一部分,STARLINK-5577 采用先进推进系统和激光通信技术,提高网络稳定性和数据传输效率,助力实现 SpaceX 构建全球宽带覆盖的目标。

基本信息
目录编号:
55751
目录名称:
STARLINK-5577
国际标识:
2023-028L
轨道中心:
EARTH
卫星名称:
星链-5577
卫星全名:
星链-5577 (STARLINK-5577 )
卫星状态:
在轨 (已飞行1024 天)
发射日期:
2023-03-03 UTC
国别 :
美国 (US)
星等 :
--
轨道信息
数据来源 国际轨道数据 AOE轨道数据
星历时间 2025-12-21T06:49:46+0800
15小时前
查看轨道信息
2025-12-17T11:00:00+0800
4天前
查看轨道信息
半长轴 6950.257km 6950.22km
偏心率 0.0003695 0.0003932
轨道倾角 69.999° 70.001°
近地点辐角 270.533° 264.354°
升交点赤经 83.078° 92.724°
平近点角 89.541° 342.954°
近地点 569.551km 569.352km
远地点 574.689km 574.818km
周期 96.108分钟 96.108分钟
每日圈数 14.983093 14.983215
详细信息
固有亮度:
5
最大亮度:
2.5
卫星平台:
Starlink v1.5
覆盖范围:
全球
运营商:
太空探索技术公司
运营商所在国:
美国
制造商(研发单位):
太空探索技术公司
制造商所在国:
美国
使用方式:
暂无
卫星简介
星链(Starlink)计划是由太空探索技术公司(SpaceX)提出的一个巨型低轨卫星互联网星座项目,计划在2019年至2024年间在太空搭建由约1.2万颗卫星组成的“星链”网络,其中1584颗将部署在地球上空550千米处的近地轨道,并从2020年开始工作。该卫星仍在工作。
2D轨道图
3D轨道图
轨道高度分析图
轨道倾角分析图
轨道综合分析图
查看轨道综合分析图